Description:,"Celsius-based heating degree days for a base temperature of 12.0C"
Source:,"www.degreedays.net (using temperature data from www.wunderground.com)"
Accuracy:,"No problems detected"
Station:,"Airport: London, UK (0.45W,51.48N)"
Station ID:,"EGLL"

Date,HDD
2009-01-01,9.8
2009-01-02,9.2
2009-01-03,12
2009-01-04,14.2
2009-01-05,12
2009-01-06,13.7
2009-01-07,13.1
2009-01-08,9.2
2009-01-09,13.1
2009-01-10,14.2
2009-01-11,7.6
2009-01-12,3.1
2009-01-13,5.3
2009-01-14,8.7
2009-01-15,6.4
2009-01-16,5.3
2009-01-17,3.7
2009-01-18,6.4
2009-01-19,7.6
2009-01-20,8.7
2009-01-21,8.7
2009-01-22,4.2
2009-01-23,7.6
2009-01-24,9.2
2009-01-25,5.3
2009-01-26,6.4
2009-01-27,7.6
2009-01-28,6.4
2009-01-29,8.7
2009-01-30,8.1
2009-01-31,8.7
2009-02-01,12
2009-02-02,13.1
2009-02-03,12
2009-02-04,10.9
2009-02-05,9.8
2009-02-06,10.9
2009-02-07,12
2009-02-08,10.3
2009-02-09,8.7
2009-02-10,8.7
2009-02-11,9.2
2009-02-12,10.9
2009-02-13,8.7
2009-02-14,9.8
2009-02-15,6.4
2009-02-16,4.8
2009-02-17,4.2
2009-02-18,3.7
2009-02-19,4.2
2009-02-20,4.8
2009-02-21,4.2
2009-02-22,3.7
2009-02-23,3.1
2009-02-24,2
2009-02-25,3.1
2009-02-26,4.2
2009-02-27,2.3
2009-02-28,5.3
2009-03-01,4.8
2009-03-02,6.4
2009-03-03,4.2
2009-03-04,7.6
2009-03-05,8.1
2009-03-06,7.6
2009-03-07,3.3
2009-03-08,5.9
2009-03-09,5.3
2009-03-10,3.7
2009-03-11,5.2
2009-03-12,1.5
2009-03-13,3.1
2009-03-14,2.6
2009-03-15,3.9
2009-03-16,3.9
2009-03-17,3.3
2009-03-18,3
2009-03-19,4.1
2009-03-20,4.4
2009-03-21,5
2009-03-22,2.6
2009-03-23,3.1
2009-03-24,4.8
2009-03-25,3.1
2009-03-26,2.6
2009-03-27,5.3
2009-03-28,5.3
2009-03-29,7
2009-03-30,5.7
2009-03-31,1.5
2009-04-01,3
2009-04-02,1.8
2009-04-03,3.3
2009-04-04,1.1
2009-04-05,1.8
2009-04-06,1.1
2009-04-07,1.5
2009-04-08,1.2
2009-04-09,1.5
2009-04-10,0.5
2009-04-11,2
2009-04-12,2
2009-04-13,1.1
2009-04-14,1.5
2009-04-15,0.5
2009-04-16,0.5
2009-04-17,3.1
2009-04-18,2.8
2009-04-19,3
2009-04-20,2.5
2009-04-21,1.3
2009-04-22,1.1
2009-04-23,1.1
2009-04-24,1.1
2009-04-25,1.5
2009-04-26,2.2
2009-04-27,4.2
2009-04-28,5
2009-04-29,3.3
2009-04-30,1.2
2009-05-01,0.5
2009-05-02,1.1
2009-05-03,1.5
2009-05-04,3.9
2009-05-05,0.4
2009-05-06,0.1
2009-05-07,0.5
2009-05-08,0.8
2009-05-09,1.5
2009-05-10,1.8
2009-05-11,1.1
2009-05-12,1.5
2009-05-13,0.4
2009-05-14,0.1
2009-05-15,0.8
2009-05-16,1.2
2009-05-17,1.5
2009-05-18,0.5
2009-05-19,0.5
2009-05-20,1.1
2009-05-21,0.8
2009-05-22,0.8
2009-05-23,0.8
2009-05-24,0.5
2009-05-25,0.1
2009-05-26,0.4
2009-05-27,0.8
2009-05-28,0
2009-05-29,0
2009-05-30,0.4
2009-05-31,0.4
2009-06-01,0.1
2009-06-02,0.4
2009-06-03,0.1
2009-06-04,1.1
2009-06-05,0.5
2009-06-06,0.5
2009-06-07,1.1
2009-06-08,0.8
2009-06-09,0.4
2009-06-10,0.1
2009-06-11,0.4
2009-06-12,0.8
2009-06-13,0
2009-06-14,0
2009-06-15,0
2009-06-16,0.4
2009-06-17,0.1
2009-06-18,0.1
2009-06-19,0.4
2009-06-20,0.4
2009-06-21,0.4
2009-06-22,0
2009-06-23,0
2009-06-24,0.1
2009-06-25,0
2009-06-26,0
2009-06-27,0
2009-06-28,0
2009-06-29,0
2009-06-30,0
2009-07-01,0
2009-07-02,0
2009-07-03,0
2009-07-04,0
2009-07-05,0
2009-07-06,0
2009-07-07,0
2009-07-08,0
2009-07-09,0.4
2009-07-10,0.5
2009-07-11,0
2009-07-12,0
2009-07-13,0
2009-07-14,0
2009-07-15,0
2009-07-16,0
2009-07-17,0
2009-07-18,0
2009-07-19,0
2009-07-20,0.1
2009-07-21,0
2009-07-22,0
2009-07-23,0
2009-07-24,0
2009-07-25,0
2009-07-26,0
2009-07-27,0
2009-07-28,0.1
2009-07-29,0
2009-07-30,0.1
2009-07-31,0.1
2009-08-01,0
2009-08-02,0.4
2009-08-03,0.1
2009-08-04,0
2009-08-05,0
2009-08-06,0
2009-08-07,0
2009-08-08,0.1
2009-08-09,0
2009-08-10,0
2009-08-11,0
2009-08-12,0
2009-08-13,0
2009-08-14,0
2009-08-15,0
2009-08-16,0
2009-08-17,0
2009-08-18,0
2009-08-19,0
2009-08-20,0
2009-08-21,0
2009-08-22,0.4
2009-08-23,0
2009-08-24,0
2009-08-25,0.1
2009-08-26,0
2009-08-27,0
2009-08-28,0.1
2009-08-29,0.5
2009-08-30,0.4
2009-08-31,0
2009-09-01,0
2009-09-02,0
2009-09-03,0
2009-09-04,0.4
2009-09-05,0.4
2009-09-06,0
2009-09-07,0
2009-09-08,0
2009-09-09,0
2009-09-10,0.5
2009-09-11,0.5
2009-09-12,0.1
2009-09-13,0.4
2009-09-14,0
2009-09-15,0
2009-09-16,0
2009-09-17,0.1
2009-09-18,0.4
2009-09-19,0
2009-09-20,0
2009-09-21,0.5
2009-09-22,0.1
2009-09-23,0
2009-09-24,0.4
2009-09-25,0.8
2009-09-26,1.1
2009-09-27,1.1
2009-09-28,0.4
2009-09-29,0.4
2009-09-30,0.1
2009-10-01,0.5
2009-10-02,1.5
2009-10-03,0
2009-10-04,0.8
2009-10-05,0.1
2009-10-06,0
2009-10-07,0.4
2009-10-08,1.8
2009-10-09,2.6
2009-10-10,0.1
2009-10-11,0.5
2009-10-12,1.1
2009-10-13,2.8
2009-10-14,0.5
2009-10-15,0.5
2009-10-16,0.8
2009-10-17,3.1
2009-10-18,4.2
2009-10-19,3.3
2009-10-20,2.8
2009-10-21,0.5
2009-10-22,0.5
2009-10-23,1.1
2009-10-24,0.1
2009-10-25,0.4
2009-10-26,0.5
2009-10-27,0.4
2009-10-28,0.4
2009-10-29,0.8
2009-10-30,0.5
2009-10-31,0.1
2009-11-01,0.8
2009-11-02,3.2
2009-11-03,1.5
2009-11-04,3.1
2009-11-05,2.1
2009-11-06,2
2009-11-07,4.2
2009-11-08,4.2
2009-11-09,6.4
2009-11-10,7.6
2009-11-11,3.1
2009-11-12,1.5
2009-11-13,0.4
2009-11-14,1.8
2009-11-15,1.5
2009-11-16,1.2
2009-11-17,1.2
2009-11-18,0.1
2009-11-19,0.1
2009-11-20,0.8
2009-11-21,1.2
2009-11-22,2
2009-11-23,1.2
2009-11-24,0.8
2009-11-25,1.2
2009-11-26,3.1
2009-11-27,5.3
2009-11-28,4.2
2009-11-29,4.2
2009-11-30,7.6
2009-12-01,9.2
2009-12-02,4.2
2009-12-03,7.6
2009-12-04,7.6
2009-12-05,2
2009-12-06,2.3
2009-12-07,4.2
2009-12-08,4.2
2009-12-09,1.2
2009-12-10,4.8
2009-12-11,8.1
2009-12-12,5.3
2009-12-13,7.6
2009-12-14,9.2
2009-12-15,10.9
2009-12-16,12
2009-12-17,10.9
2009-12-18,12
2009-12-19,13.1
2009-12-20,12
2009-12-21,12
2009-12-22,12
2009-12-23,12
2009-12-24,7.6
2009-12-25,8.7
2009-12-26,5.3
2009-12-27,7.6
2009-12-28,9.8
2009-12-29,8.7
2009-12-30,8.1
2009-12-31,9.8
